Dewpoint
-26 -25 -24 -24 -23 -23 -23 -24 -15 -12 -9 -12 -16 -15 -19 -12 -12 -10 -15 -11 -18 -12 -5 -6 -5 -5 -7 -7 -5 -5 -3 -3 -6 -6 -7 -8 -7 -8 -5 -4 -4 -4 -3 -2 3
-24 -24 -23 -22 -22 -22 -22 -23 -19 -12 -13 -15 -17 -13 -16 -15 -13 -13 -11 -17 -25 -13 -7 -7 -7 -7 -8 -9 -9 -9 -7 -8 -10 -10 -9 -8 -9 -7 -5 -4 -4 -4 -4 -3 -2
-23 -22 -21 -21 -20 -20 -22 -22 -23 -15 -12 -16 -16 -14 -12 -17 -13 -11 -15 -20 -26 -13 -9 -8 -9 -10 -10 -10 -10 -10 -9 -11 -11 -12 -11 -8 -6 -6 -5 -4 -5 -4 -4 -4 -2
-22 -21 -20 -19 -19 -19 -21 -22 -22 -23 -17 -11 -15 -11 -11 -6 -10 -10 -16 -18 -19 -18 -12 -12 -11 -11 -11 -10 -11 -10 -12 -12 -12 -11 -11 -9 -6 -6 -6 -6 -5 -5 -5 -5 -3
-20 -19 -18 -18 -18 -19 -21 -16 -12 -16 -16 -14 -20 -14 -11 -12 -10 -9 -11 -12 -12 -14 -15 -14 -13 -12 -11 -12 -12 -12 -12 -12 -12 -12 -11 -9 -7 -6 -6 -6 -6 -6 -5 -5 -4
-19 -17 -17 -16 -17 -19 -19 -9 -8 -11 -14 -17 -16 -11 -12 -11 -10 -9 -11 -13 -12 -13 -12 -13 -12 -11 -11 -11 -11 -12 -13 -13 -13 -13 -13 -11 -8 -8 -7 -7 -7 -7 -7 -6 -5
-17 -16 -15 -16 -17 -19 -16 -9 -10 -12 -14 -17 -17 -12 -11 -12 -11 -9 -12 -13 -13 -11 -11 -11 -11 -11 -11 -12 -12 -13 -12 -13 -13 -15 -14 -13 -7 -7 -8 -8 -7 -7 -7 -7 -5
-16 -15 -15 -16 -19 -15 -11 -9 -11 -12 -14 -17 -13 -10 -13 -13 -12 -10 -12 -13 -13 -13 -10 -10 -11 -11 -10 -12 -13 -13 -13 -12 -14 -14 -17 -16 -6 -6 -8 -8 -8 -7 -6 -6 -6
-15 -14 -14 -17 -18 -12 -9 -11 -13 -14 -14 -15 -7 -11 -12 -14 -13 -11 -11 -12 -13 -13 -13 -13 -14 -13 -12 -13 -15 -16 -15 -12 -12 -15 -16 -15 -6 -6 -7 -7 -7 -7 -7 -6 -6
-14 -13 -15 -19 -12 -10 -10 -11 -12 -10 -12 -10 -10 -8 -12 -13 -13 -13 -10 -11 -12 -13 -14 -14 -16 -17 -17 -17 -16 -14 -13 -12 -11 -12 -15 -11 -6 -6 -6 -5 -5 -6 -7 -7 -6
-13 -14 -17 -21 -10 -9 -10 -9 -7 -9 -9 -10 -11 -12 -13 -13 -12 -13 -10 -10 -11 -12 -10 -12 -10 -10 -12 -14 -16 -16 -15 -13 -14 -14 -13 -9 -6 -5 -5 -5 -5 -6 -6 -6 -6
-13 -14 -18 -18 -9 -9 -8 -7 -4 -10 -11 -12 -12 -11 -11 -11 -12 -10 -10 -10 -10 -10 -12 -11 -9 -12 -15 -16 -16 -16 -13 -12 -14 -13 -10 -10 -6 -6 -5 -5 -6 -7 -8 -6 -5
-13 -16 -19 -11 -8 -9 -1 -3 -6 -6 -9 -11 -13 -13 -11 -10 -10 -10 -9 -10 -11 -9 -10 -9 -13 -17 -13 -14 -15 -13 -12 -13 -13 -13 -12 -11 -6 -5 -6 -6 -10 -10 -9 -8 -6
-14 -17 -13 -7 -8 -2 -4 -12 -10 -6 -3 -10 -13 -14 -13 -11 -10 -10 -10 -10 -9 -11 -12 -14 -17 -15 -14 -13 -11 -12 -16 -15 -15 -11 -9 -11 -7 -6 -6 -9 -11 -12 -10 -9 -8
-14 -16 -10 -7 -3 -6 -3 -11 -14 -8 12 -8 -13 -13 -13 -11 -12 -11 -9 -10 -9 -9 -6 -11 -14 -16 -14 -14 -15 -11 -14 -12 -13 -10 -9 -10 -11 -5 -8 -9 -9 -13 -11 -9 -8
-15 -15 -8 -7 -5 -3 -9 -13 -10 6 11 -9 -13 -13 -12 -12 -13 -12 -11 -11 -12 -11 -11 -10 -13 -13 -14 -16 -15 -12 -10 -9 -9 -8 -3 -7 -11 -8 -8 -9 -12 -11 -11 -10 -9
-15 -14 -8 -5 -3 -10 -14 -7 8 10 -7 -10 -12 -13 -12 -12 -12 -12 -10 -8 -5 3 -4 -11 -11 -13 -13 -13 -15 -10 -6 3 -0 1 1 -7 -10 -4 -8 -11 -11 -10 -10 -9 -10
-15 -14 -10 -10 -7 -12 -11 -1 9 -2 -7 -13 -13 -12 -10 -10 -9 -9 -9 -7 -10 -8 -7 -5 -3 -10 -12 -10 -11 -11 -6 5 5 -4 -9 -11 -12 -0 -12 -12 -9 -9 -11 -10 -8
-14 -13 -12 -14 -14 -12 -3 9 7 -7 -10 -12 -13 -10 -9 -9 -8 -8 -8 -7 -9 -8 -2 -5 -7 -12 -11 -12 -10 -9 -3 -7 -1 -6 -8 -13 -10 -8 -13 -13 -13 -12 -9 -7 -6
-2 -2 -1 -16 -12 -5 4 5 -6 -10 -12 -12 -9 -11 -9 -10 -8 -7 -7 -9 -9 -10 -6 -7 -5 -11 -13 -12 -10 -6 -8 0 2 4 3 -8 -12 -9 -11 -12 -11 -9 -7 -6 -5
-2 -4 -5 -13 -7 -2 8 -1 -7 -12 -13 -11 -10 -9 -10 -9 -9 -8 -7 -8 -10 -9 -9 -9 -2 -7 -11 -9 -8 -8 -5 -5 -3 -2 2 -4 -10 -11 -11 -11 -9 -8 -7 -6 -6
-2 3 -7 -7 1 4 5 -7 -10 -11 -10 -9 -10 -9 -9 -10 -9 -9 -8 -8 -10 -10 -7 -6 3 -5 -7 -10 -11 -11 -8 -6 1 4 -4 -5 -9 -14 -11 -11 -10 -8 -7 -7 -6
-1 -1 -5 -0 4 5 -5 -8 -10 -10 -10 -9 -8 -9 -9 -9 -7 -8 -7 -8 -10 -9 -8 -9 -2 -1 -7 -5 -8 -6 -2 2 3 -7 -4 -1 -6 -12 -12 -12 -11 -10 -8 -7 -6
-1 4 -3 -1 -4 -3 -6 -7 -7 -10 -9 -9 -9 -9 -8 -7 -8 -6 -6 -8 -10 -9 -9 -9 -4 5 1 3 1 2 1 0 1 -1 -2 -6 -8 -12 -12 -13 -13 -11 -9 -8 -7
-2 2 -1 3 3 -5 -8 -8 -7 -6 -8 -9 -8 -9 -8 -6 -7 -7 -7 -7 -8 -7 -9 -6 2 -1 -1 -8 -12 -10 -2 -5 -2 -5 -4 -12 -15 -16 -15 -15 -13 -11 -10 -9 -9
-5 1 -3 -4 -7 -6 -6 -6 -7 -9 -8 -8 -8 -9 -9 -5 -7 -4 -6 -7 -6 -6 -6 -6 -0 -7 -5 -11 -13 -11 -12 -12 -10 -7 -8 -9 -10 -13 -14 -14 -13 -12 -10 -9 -9
-2 -4 -1 -5 -7 -1 -2 -7 -8 -9 -7 -9 -9 -9 -8 -9 -9 -9 -9 -9 -8 -5 -5 -4 -2 -5 -2 -9 -9 -4 -8 -11 -12 -12 -10 -6 -8 -12 -12 -12 -12 -10 -9 -9 -9
Wind_Speed
10 9 9 8 8 7 7 8 12 14 13 10 10 12 15 25 24 16 22 19 17 8 8 7 5 7 9 9 3 3 8 11 11 15 12 14 17 23 26 30 34 29 26 20 20
10 9 9 8 9 8 8 9 11 13 13 9 6 6 8 11 10 28 18 15 9 7 11 10 8 5 12 9 6 2 13 12 15 16 16 21 15 18 23 26 27 26 24 22 23
10 9 8 9 9 8 8 9 9 11 10 6 0 4 2 5 5 20 20 18 11 8 4 6 9 13 16 14 6 12 13 14 14 12 12 19 27 22 16 19 23 22 22 22 23
10 9 9 9 8 8 9 10 11 10 9 4 5 13 12 4 3 19 19 22 18 11 5 4 4 8 10 10 17 21 17 18 17 13 13 17 21 25 25 19 16 17 18 20 23
11 9 9 9 9 9 9 11 12 12 12 8 10 13 12 15 14 15 21 19 16 13 10 11 9 10 13 24 26 20 21 22 19 17 17 18 22 19 20 16 15 15 17 19 20
12 10 9 10 10 10 12 14 14 12 13 9 11 15 8 21 11 13 15 17 18 15 17 13 22 21 14 9 11 18 19 15 14 13 15 15 18 12 15 13 15 15 17 18 19
13 11 10 11 11 11 14 15 14 13 15 13 14 18 26 14 8 8 14 17 15 16 17 10 8 1 20 24 23 22 19 17 10 6 4 2 14 13 11 11 13 15 15 16 17
13 12 11 12 13 14 17 19 18 14 12 9 14 11 12 10 8 10 9 14 17 15 13 14 17 17 7 19 10 8 8 4 7 1 2 6 12 9 9 11 13 14 15 16 18
15 14 13 14 17 17 19 18 15 12 10 8 6 10 9 7 12 9 9 8 10 14 12 14 13 16 17 11 8 7 4 10 8 7 1 6 11 7 8 10 12 14 15 16 17
15 15 16 17 21 21 21 16 16 9 8 5 3 10 9 7 12 10 8 9 8 6 11 8 8 9 4 7 2 7 7 6 7 7 7 11 10 7 7 9 11 13 15 16 17
16 16 17 21 24 24 23 22 8 7 18 16 16 26 19 14 12 15 8 10 9 11 16 20 13 12 11 10 9 7 7 10 8 5 1 6 8 8 6 7 9 11 12 15 16
16 17 19 25 27 26 22 10 3 21 17 20 20 18 11 7 13 16 9 3 5 13 19 15 15 9 8 8 8 7 6 8 6 6 5 3 8 7 5 6 8 9 11 12 13
19 20 23 26 27 29 10 5 14 9 7 7 9 11 14 12 11 11 8 16 17 14 13 12 8 6 6 7 10 11 7 4 6 2 1 4 9 9 7 5 6 8 9 11 13
21 22 25 27 24 15 7 9 23 8 2 5 4 4 3 7 8 10 6 3 3 12 11 12 5 5 9 8 8 3 5 3 3 6 1 1 1 9 6 5 5 7 9 11 13
23 25 27 28 11 18 10 27 11 1 2 5 5 4 5 3 13 8 7 15 8 7 3 6 9 5 7 6 6 5 3 3 4 6 4 5 7 10 5 5 2 3 6 8 11
24 26 27 25 15 18 16 20 2 2 4 6 8 12 9 7 7 6 7 11 14 20 20 11 7 9 4 1 4 2 4 5 5 3 6 5 5 10 5 5 6 2 7 11 15
24 26 27 20 13 16 23 9 2 3 8 8 11 11 10 9 6 5 6 5 1 5 5 9 7 5 6 4 1 5 4 3 3 4 2 6 6 9 4 3 5 9 11 14 18
24 25 26 25 17 18 19 4 3 5 7 7 16 15 9 12 7 5 5 6 4 2 7 5 5 6 6 6 4 3 4 1 4 3 3 7 5 5 3 3 4 7 10 15 17
23 20 18 22 20 22 14 3 5 8 10 14 14 12 11 8 6 6 2 5 3 2 2 3 4 5 5 6 5 2 1 4 3 1 4 2 6 4 4 2 1 7 9 10 12
17 14 9 20 25 20 4 4 3 2 13 18 6 9 9 13 10 9 7 3 6 3 1 2 5 4 4 3 5 5 3 2 2 1 4 5 8 2 8 1 3 7 8 9 11
17 9 11 21 25 13 3 4 4 10 14 10 3 7 7 15 8 10 8 6 4 6 2 5 1 6 3 4 1 3 3 2 1 3 3 5 2 6 5 1 4 6 6 8 10
14 4 17 28 9 4 3 6 8 12 6 2 3 3 10 12 7 6 7 2 10 10 7 4 1 4 3 4 2 2 2 5 2 3 5 5 6 9 5 1 4 6 6 8 10
12 7 20 17 5 6 8 8 7 14 12 7 5 3 5 9 5 8 10 7 11 7 6 8 4 3 5 5 3 3 2 3 2 3 10 4 1 8 5 7 6 9 10 9 11
10 4 8 8 6 14 14 10 8 8 9 6 10 10 9 9 4 10 10 6 9 6 5 3 4 3 3 1 5 4 8 6 5 4 5 14 16 10 10 11 10 10 11 11 12
6 5 11 6 6 19 17 13 14 8 8 11 6 7 10 6 7 7 11 12 9 8 6 2 2 0 4 9 9 9 10 13 15 13 7 8 13 13 14 13 14 13 14 14 14
7 6 7 11 18 18 13 13 16 11 14 15 8 11 10 8 5 11 11 9 6 11 7 4 0 3 5 7 10 14 17 17 19 20 22 22 25 23 16 13 16 15 16 17 17
5 12 8 12 17 11 11 13 16 14 3 12 11 12 9 8 6 10 9 10 7 10 10 6 3 2 3 4 9 11 16 19 18 18 17 17 19 17 17 18 16 17 17 18 19
Wind_Direction
146 136 130 134 136 153 150 133 120 111 112 122 101 78 75 74 51 44 41 4 356 30 64 7 86 109 96 81 78 220 136 94 85 83 63 64 81 72 69 65 60 59 56 48 37
147 142 136 146 150 165 147 133 126 124 121 134 111 63 64 78 57 37 22 21 21 45 63 42 62 120 90 68 19 257 100 94 102 95 76 62 56 84 64 55 52 51 47 45 45
151 147 149 155 161 168 147 131 123 130 137 169 351 5 75 90 55 7 17 25 40 67 29 53 88 84 79 53 67 65 102 123 115 72 93 84 63 48 65 48 42 40 39 38 42
154 155 160 160 166 172 147 132 127 127 132 169 76 75 66 25 44 351 22 29 34 39 39 47 148 92 82 91 82 96 92 113 106 89 82 76 78 65 60 59 43 41 38 37 38
154 164 168 164 168 170 141 125 118 115 113 115 90 85 78 71 34 2 20 24 29 45 68 75 78 60 86 99 94 91 95 93 94 87 86 81 71 69 53 47 43 41 40 37 36
159 170 171 167 171 164 137 127 120 115 109 114 97 95 94 76 26 24 28 32 43 50 70 88 88 96 84 69 96 113 97 98 96 99 91 86 63 66 45 40 44 42 38 37 33
163 169 174 172 166 159 138 130 126 116 116 117 107 79 75 62 31 46 31 39 44 62 74 91 114 34 110 94 116 120 104 83 59 74 76 306 66 45 35 44 43 43 40 39 33
167 170 174 170 161 153 136 126 123 128 127 115 96 90 75 39 50 36 49 53 52 54 79 88 96 105 98 127 143 164 192 166 58 185 12 228 90 60 36 45 45 41 39 35 33
170 172 171 169 157 148 139 128 115 112 119 112 70 105 84 38 39 36 62 43 43 54 75 89 94 107 137 148 156 200 98 102 106 34 125 243 109 77 60 52 51 40 33 32 31
172 173 168 166 155 148 141 125 107 72 87 94 32 90 67 64 47 31 42 37 41 77 81 99 123 134 109 245 30 125 111 72 61 25 86 87 106 108 74 59 48 39 30 27 25
175 172 167 164 156 148 141 123 117 74 76 87 75 98 102 84 63 41 48 51 87 75 76 51 86 68 60 44 60 74 106 97 79 35 99 90 112 104 81 58 46 43 32 22 18
177 173 167 165 160 159 156 214 51 135 93 85 85 86 94 90 63 43 37 72 90 100 109 87 71 65 64 75 78 79 111 88 108 53 270 170 129 112 86 74 53 27 33 27 18
178 174 168 166 165 169 174 231 147 148 111 80 83 86 78 90 58 46 68 61 80 88 63 78 87 61 72 87 82 51 39 36 359 48 78 218 163 170 130 122 56 43 28 22 21
176 171 166 167 166 183 199 195 156 158 138 128 150 87 96 122 63 50 38 70 76 96 84 67 80 93 86 65 318 106 16 302 267 251 268 239 100 172 136 136 82 39 23 15 6
174 170 168 165 192 180 204 176 171 10 188 171 115 115 134 78 140 51 61 70 89 114 179 95 61 74 73 39 334 57 304 271 257 258 236 162 257 113 167 197 105 16 358 358 353
173 170 169 176 159 190 196 177 210 267 213 162 151 151 118 107 80 94 89 100 85 79 84 101 89 42 47 55 13 100 192 198 226 251 239 105 310 136 124 9 328 343 328 330 331
173 170 169 180 185 182 171 163 169 210 160 165 166 172 134 134 111 129 134 105 121 115 115 116 74 96 19 231 209 198 222 221 213 203 294 115 269 59 36 335 324 330 327 322 329
173 174 181 180 182 173 167 196 192 156 191 152 153 148 142 138 125 145 157 115 74 329 148 176 164 358 10 22 355 31 333 302 254 293 342 150 240 99 24 312 302 295 321 335 341
168 168 179 186 173 169 171 191 178 172 140 156 155 162 147 147 154 156 162 111 86 349 157 140 111 102 54 39 314 69 111 3 305 241 267 207 119 212 174 150 342 335 332 347 349
151 149 171 177 167 158 175 228 160 169 156 163 168 206 170 164 159 184 167 136 127 113 259 122 129 206 128 250 60 1 82 205 61 308 271 274 239 212 179 198 342 337 344 344 344
152 150 172 165 155 174 196 190 144 157 153 196 151 185 174 158 166 169 146 140 143 132 183 129 132 147 191 210 149 150 144 88 328 303 285 298 26 86 137 155 327 328 332 339 339
156 122 162 151 142 156 188 167 140 154 148 136 168 126 160 162 162 135 155 128 159 150 141 70 158 167 121 106 313 311 192 187 238 184 254 292 294 120 141 271 288 306 308 323 325
129 117 162 153 139 195 156 144 169 166 163 167 143 136 141 160 136 131 127 124 152 158 161 167 167 152 174 170 190 231 123 98 98 266 245 246 274 152 166 261 276 288 296 296 312
145 114 162 203 207 186 180 171 148 191 146 168 132 139 139 139 119 149 126 148 161 144 110 151 199 225 316 74 114 169 197 201 202 211 258 237 269 271 237 264 292 294 289 289 300
161 169 173 175 217 193 187 180 161 155 185 175 173 177 160 156 153 152 130 137 173 146 177 206 191 268 253 247 245 233 200 198 216 225 236 276 303 311 314 304 293 290 283 279 289
139 146 177 169 173 185 183 197 178 169 166 183 192 175 156 162 177 176 157 170 164 172 178 162 202 284 261 250 265 269 260 241 228 227 247 262 275 281 293 284 290 277 285 285 287
154 138 146 165 173 176 188 188 187 157 190 181 187 164 161 113 111 140 155 164 152 172 182 165 153 207 268 336 317 278 258 239 245 238 243 255 269 295 297 286 277 270 280 286 287
Height
1540 1541 1542 1542 1543 1545 1545 1544 1543 1542 1544 1547 1545 1544 1544 1542 1545 1543 1538 1543 1539 1537 1536 1537 1538 1537 1534 1534 1529 1523 1520 1539 1549 1555 1560 1554 1557 1560 1564 1565 1567 1571 1575 1578 1576
1541 1542 1543 1543 1544 1545 1545 1544 1544 1543 1544 1548 1547 1546 1545 1545 1548 1545 1548 1545 1541 1539 1538 1540 1540 1537 1537 1536 1533 1519 1525 1551 1558 1560 1563 1565 1563 1564 1567 1571 1574 1577 1579 1580 1579
1542 1543 1543 1544 1544 1546 1545 1544 1545 1544 1545 1549 1548 1547 1546 1547 1548 1553 1548 1545 1543 1541 1543 1544 1543 1543 1541 1543 1542 1536 1549 1558 1561 1565 1565 1568 1571 1572 1570 1576 1582 1583 1583 1583 1582
1542 1543 1545 1545 1546 1547 1545 1544 1544 1544 1545 1550 1550 1548 1547 1548 1553 1556 1550 1547 1545 1544 1545 1546 1544 1544 1545 1548 1550 1553 1558 1563 1568 1569 1570 1574 1577 1580 1583 1588 1589 1588 1587 1586 1585
1542 1545 1545 1546 1547 1548 1547 1546 1547 1547 1548 1552 1550 1550 1551 1553 1561 1558 1554 1552 1551 1549 1548 1548 1546 1546 1548 1554 1559 1563 1566 1570 1573 1575 1577 1580 1582 1585 1590 1591 1592 1592 1590 1589 1589
1541 1545 1546 1548 1548 1549 1548 1548 1549 1550 1551 1555 1553 1550 1555 1555 1564 1562 1559 1556 1553 1552 1551 1552 1551 1553 1556 1558 1559 1569 1569 1574 1576 1578 1581 1582 1586 1586 1595 1595 1594 1594 1593 1592 1592
1541 1545 1547 1548 1550 1551 1549 1549 1551 1553 1554 1556 1555 1554 1553 1565 1565 1564 1563 1559 1558 1556 1556 1556 1556 1557 1562 1564 1570 1571 1572 1578 1581 1582 1582 1584 1587 1594 1597 1597 1596 1596 1596 1595 1595
1540 1543 1546 1548 1550 1552 1552 1552 1551 1555 1556 1556 1556 1555 1562 1567 1567 1566 1565 1563 1561 1560 1558 1559 1559 1560 1563 1568 1571 1568 1566 1564 1584 1583 1585 1583 1590 1599 1599 1597 1597 1597 1597 1598 1598
1539 1542 1546 1549 1550 1553 1556 1556 1557 1559 1558 1557 1559 1557 1566 1569 1569 1567 1566 1566 1566 1565 1562 1562 1562 1563 1566 1563 1562 1562 1559 1567 1582 1584 1581 1579 1591 1599 1600 1598 1599 1599 1600 1600 1599
1539 1542 1545 1548 1551 1553 1557 1559 1559 1561 1561 1562 1562 1559 1569 1572 1571 1570 1568 1568 1568 1566 1565 1563 1560 1560 1560 1556 1553 1565 1570 1575 1575 1588 1581 1585 1594 1600 1600 1600 1600 1602 1603 1603 1601
1539 1541 1545 1548 1552 1555 1560 1561 1566 1567 1566 1564 1570 1564 1567 1572 1573 1571 1570 1571 1570 1569 1567 1566 1566 1575 1578 1573 1569 1568 1569 1580 1587 1592 1584 1587 1591 1597 1602 1601 1602 1603 1605 1605 1603
1540 1541 1544 1549 1551 1556 1559 1562 1562 1566 1569 1571 1572 1572 1571 1572 1574 1574 1574 1574 1571 1572 1573 1576 1585 1588 1584 1579 1576 1574 1575 1583 1589 1593 1586 1589 1592 1597 1601 1603 1605 1606 1606 1607 1606
1538 1540 1544 1550 1552 1556 1561 1563 1564 1566 1568 1575 1575 1574 1576 1576 1579 1581 1581 1579 1576 1577 1576 1579 1595 1593 1588 1585 1583 1587 1585 1589 1588 1592 1590 1587 1588 1593 1600 1601 1604 1606 1607 1607 1607
1537 1540 1544 1549 1558 1558 1562 1562 1562 1563 1563 1573 1574 1576 1578 1577 1583 1584 1584 1585 1585 1584 1586 1595 1600 1596 1594 1597 1593 1587 1601 1599 1595 1588 1574 1587 1570 1584 1593 1596 1602 1606 1608 1608 1608
1537 1539 1544 1551 1553 1558 1561 1562 1563 1563 1571 1575 1574 1577 1578 1578 1582 1586 1586 1585 1584 1588 1587 1605 1601 1597 1597 1606 1600 1602 1605 1600 1595 1585 1585 1583 1578 1582 1591 1592 1598 1604 1607 1608 1608
1535 1539 1544 1550 1553 1555 1558 1562 1566 1567 1572 1571 1572 1573 1576 1580 1585 1588 1588 1589 1590 1591 1596 1604 1608 1609 1609 1610 1607 1607 1602 1598 1595 1588 1588 1582 1589 1571 1582 1595 1598 1601 1605 1606 1606
1535 1538 1544 1547 1554 1556 1559 1565 1569 1575 1565 1570 1567 1569 1569 1577 1584 1584 1586 1589 1587 1599 1595 1602 1608 1611 1612 1604 1602 1601 1599 1595 1593 1593 1582 1591 1594 1589 1597 1599 1602 1603 1605 1604 1604
1534 1537 1541 1545 1550 1555 1562 1566 1574 1562 1556 1559 1564 1566 1567 1575 1585 1587 1586 1588 1594 1590 1587 1591 1605 1610 1615 1612 1606 1605 1600 1603 1606 1578 1574 1588 1584 1594 1597 1600 1601 1603 1601 1602 1602
1535 1538 1542 1546 1550 1557 1564 1569 1563 1549 1558 1560 1566 1564 1568 1574 1577 1583 1583 1586 1594 1596 1593 1596 1609 1617 1617 1616 1615 1605 1606 1613 1613 1606 1600 1566 1584 1597 1596 1598 1600 1601 1602 1602 1602
1535 1541 1542 1545 1549 1559 1564 1562 1553 1550 1554 1559 1558 1556 1563 1567 1573 1575 1584 1593 1596 1599 1601 1600 1609 1613 1617 1618 1618 1610 1617 1613 1621 1617 1610 1573 1575 1579 1591 1596 1599 1600 1601 1601 1601
1536 1541 1543 1546 1552 1560 1561 1556 1556 1555 1555 1559 1558 1561 1555 1564 1565 1570 1580 1596 1598 1601 1601 1600 1603 1614 1617 1611 1608 1614 1614 1620 1618 1615 1608 1593 1571 1578 1590 1597 1599 1600 1601 1601 1600
1534 1541 1543 1546 1554 1559 1558 1553 1556 1558 1560 1564 1561 1561 1560 1565 1568 1573 1582 1585 1598 1600 1601 1605 1608 1604 1605 1616 1617 1614 1613 1615 1619 1625 1613 1607 1591 1587 1594 1599 1600 1600 1600 1600 1599
1533 1540 1544 1545 1554 1554 1552 1554 1553 1557 1558 1564 1563 1564 1567 1567 1575 1577 1584 1595 1597 1600 1602 1606 1608 1611 1609 1617 1620 1618 1621 1631 1632 1621 1610 1608 1582 1590 1594 1595 1596 1597 1597 1597 1597
1531 1541 1547 1547 1546 1547 1548 1550 1555 1558 1557 1563 1563 1565 1567 1572 1574 1580 1591 1599 1600 1601 1606 1606 1605 1609 1595 1610 1612 1627 1628 1630 1626 1620 1606 1592 1585 1582 1586 1586 1590 1592 1593 1593 1593
1527 1531 1533 1542 1546 1543 1544 1545 1550 1556 1560 1563 1565 1561 1564 1573 1577 1580 1588 1598 1603 1605 1606 1606 1613 1613 1612 1605 1601 1603 1615 1615 1625 1614 1611 1581 1581 1580 1582 1584 1587 1589 1590 1590 1589
1523 1527 1530 1529 1538 1539 1542 1543 1545 1550 1554 1556 1560 1561 1564 1571 1573 1577 1583 1588 1592 1603 1604 1607 1611 1608 1608 1599 1598 1597 1592 1592 1595 1602 1601 1597 1587 1586 1584 1585 1586 1586 1586 1585 1585
1522 1523 1528 1530 1536 1538 1541 1542 1543 1551 1557 1554 1559 1562 1567 1571 1575 1577 1583 1585 1588 1594 1599 1605 1609 1612 1604 1602 1601 1598 1582 1581 1581 1584 1588 1588 1583 1582 1582 1581 1583 1583 1582 1581 1581